Zurück zum Katalog

SBS 3

AktivKommunikationGEO
NORAD 13651·PAYLOAD·🇺🇸 United States

Gestartet Nov 11, 1982 von Cape Canaveral Space Force Station

Loading…

TLE

AktuellSource: Space-Track

Epoche: Sep 14, 2026, 00:00 UTC

1 13651U 82110B   26257.00042975 -.00000240  00000-0  00000-0 0  9994
2 13651  12.4117 333.7646 0004487 157.7382 198.7762  0.99937983 47426

Verfolge SBS 3 in Echtzeit mit AllMySat

Download on the App Store